New York, NY

6:35 PM EST on November 14, 2019 (GMT -0500)
La Guardia

Weather History for KLGA - August, 2019

Change the Weather History Date:

Friday, August 30, 2019

  Actual Average Record
Temperature  
Mean Temperature 80 °F 74 °F  
Max Temperature 89 °F 81 °F 99 °F (1953)
Min Temperature 70 °F 67 °F 54 °F (1946)
Degree Days  
Heating Degree Days 0 0  
Month to date heating degree days 0 0  
Since 1 June heating degree days 4 16  
Since 1 July heating degree days 0 0  
Cooling Degree Days 15 9  
Month to date cooling degree days 392 341  
Year to date cooling degree days 1217 1023  
Since 1 June cooling degree days 1155 957  
Growing Degree Days 29 (Base 50)    
Moisture  
Dew Point 56 °F    
Average Humidity 48    
Maximum Humidity 61    
Minimum Humidity 35    
Precipitation  
Precipitation 0.00 in 0.11 in 1.89 in (2008)
Month to date precipitation 3.14 4.01  
Year to date precipitation 35.84 30.14  
Snow  
Snow 0.00 in 0.00 in - ()
Month to date snowfall 0.0 0.0  
Since 1 July snowfall 0.0 0.0  
Snow Depth 0.00 in    
Sea Level Pressure  
Sea Level Pressure 30.00 in    
Wind  
Wind Speed 9 mph (WSW)    
Max Wind Speed 18 mph    
Max Gust Speed 28 mph    
Visibility 10 miles    
Events      
T = Trace of Precipitation, MM = Missing Value Source: NWS Daily Summary

Daily Weather History Graph

Daily Weather History Graph

Search for Another Location

Airport or City:

Astronomy

Aug. 30, 2019 Rise Set
Actual Time 6:20 AM EDT 7:31 PM EDT
Civil Twilight 5:51 AM EDT 7:59 PM EDT
Nautical Twilight 5:18 AM EDT 8:33 PM EDT
Astronomical Twilight 4:42 AM EDT 9:08 PM EDT
Moon 6:17 AM EDT (8/30) 8:06 PM EDT (8/30)
Length of Visible Light 14h 07m
Length of Day
13h 11m
New Moon, 0% of the Moon is Illuminated
Aug 30
New Moon
Sep 5
First Quarter
Sep 14
Full
Sep 21
Last Quarter
Sep 28
New

Hourly Weather History & Observations

Time (EDT) Temp. Heat Index Dew Point Humidity Pressure Visibility Wind Dir Wind Speed Gust Speed Precip Events Conditions
12:51 AM 73.9 °F - 54.0 °F 50% 29.99 in 10.0 mi WNW 3.5 mph - N/A   Clear
1:51 AM 73.0 °F - 54.0 °F 51% 29.99 in 10.0 mi Calm Calm - N/A   Clear
2:51 AM 71.1 °F - 55.9 °F 59% 29.99 in 10.0 mi Calm Calm - N/A   Clear
3:51 AM 71.1 °F - 55.0 °F 57% 29.99 in 10.0 mi SSW 6.9 mph - N/A   Clear
4:51 AM 70.0 °F - 55.0 °F 59% 30.00 in 10.0 mi SW 5.8 mph - N/A   Clear
5:51 AM 70.0 °F - 54.0 °F 57% 30.00 in 10.0 mi SW 6.9 mph - N/A   Clear
6:51 AM 71.1 °F - 53.1 °F 53% 30.02 in 10.0 mi SW 8.1 mph - N/A   Clear
7:51 AM 72.0 °F - 54.0 °F 53% 30.03 in 10.0 mi WSW 8.1 mph - N/A   Clear
8:51 AM 75.9 °F - 54.0 °F 46% 30.03 in 10.0 mi WSW 12.7 mph - N/A   Partly Cloudy
9:51 AM 78.1 °F - 55.0 °F 45% 30.02 in 10.0 mi SW 9.2 mph - N/A   Partly Cloudy
10:51 AM 80.1 °F 80.1 °F 55.0 °F 42% 30.03 in 10.0 mi SW 12.7 mph 21.9 mph N/A   Partly Cloudy
11:51 AM 82.0 °F 81.3 °F 54.0 °F 38% 30.01 in 10.0 mi SSW 15.0 mph 21.9 mph N/A   Partly Cloudy
12:51 PM 84.0 °F 82.9 °F 55.0 °F 37% 29.99 in 10.0 mi SSW 15.0 mph - N/A   Partly Cloudy
1:51 PM 86.0 °F 84.7 °F 55.9 °F 36% 29.98 in 10.0 mi SW 12.7 mph 21.9 mph N/A   Partly Cloudy
2:51 PM 88.0 °F 86.7 °F 57.0 °F 35% 29.97 in 10.0 mi WSW 10.4 mph - N/A   Partly Cloudy
3:51 PM 88.0 °F 86.7 °F 57.0 °F 35% 29.96 in 10.0 mi West 10.4 mph - N/A   Mostly Cloudy
4:51 PM 88.0 °F 86.9 °F 57.9 °F 36% 29.96 in 10.0 mi West 18.4 mph 27.6 mph N/A   Scattered Clouds
5:51 PM 87.1 °F 86.1 °F 57.9 °F 37% 29.97 in 10.0 mi West 10.4 mph 20.7 mph N/A   Scattered Clouds
6:51 PM 86.0 °F 85.7 °F 60.1 °F 41% 29.99 in 10.0 mi WSW 11.5 mph - N/A   Scattered Clouds
7:51 PM 84.0 °F 84.0 °F 60.1 °F 44% 30.00 in 10.0 mi West 8.1 mph - N/A   Scattered Clouds
8:51 PM 84.0 °F 84.0 °F 60.1 °F 44% 30.01 in 10.0 mi West 9.2 mph - N/A   Partly Cloudy
9:51 PM 82.9 °F 83.3 °F 61.0 °F 47% 30.04 in 10.0 mi West 10.4 mph - N/A   Partly Cloudy
10:51 PM 82.9 °F 83.3 °F 61.0 °F 47% 30.06 in 10.0 mi WSW 9.2 mph - N/A   Partly Cloudy
11:51 PM 82.0 °F 82.7 °F 61.0 °F 49% 30.06 in 10.0 mi West 8.1 mph - N/A   Partly Cloudy